DW5321 Paradera AW current weather conditions

sailwx.info

Wind from 124 at 4 knots gusting 9

Air temperature 27.8° C
Dewpoint 25.6° C

Last reported at 2014-Oct-31 04:47 UTC.
Time now 2014-Oct-31 06:18 UTC

Location: N 12°33' W 070°00'.
View on Google Maps.

See reports from other nearby stations

  
Tides and Currents Weather Stations Pressure Air Temp Water Temp Dewpoint Dewpoint Depression Visibility Wind Speed Wind Dir Waves Ship Positions
date/time (UTC)wind fromknots sea level pressurealtimeterstation pressurevisibilityair tempwater tempwave heightnotes
2014-Oct-31 04:47 124 4 gusting 9 27.8
2014-Oct-31 04:32 117 4 gusting 7 27.8
2014-Oct-31 04:17 096 4 gusting 8 27.8
2014-Oct-31 04:02 117 4 gusting 10 27.8
2014-Oct-31 03:47 110 5 gusting 10 27.8
2014-Oct-31 03:32 105 5 gusting 12 27.8
2014-Oct-31 03:17 090 5 gusting 8 27.8
2014-Oct-31 03:02 079 6 gusting 10 27.8
2014-Oct-31 02:47 096 6 gusting 11 27.8
2014-Oct-31 02:32 108 5 gusting 13 27.8
2014-Oct-31 02:17 064 4 gusting 12 27.8
2014-Oct-31 02:02 088 6 gusting 12 28.3
2014-Oct-31 01:47 094 5 gusting 10 28.3
2014-Oct-31 01:32 097 7 gusting 10 28.3
2014-Oct-31 01:17 082 6 gusting 12 28.3
2014-Oct-31 01:02 044 5 gusting 12 28.3
2014-Oct-31 00:47 097 6 gusting 12 28.3
2014-Oct-31 00:32 100 6 gusting 13 28.3
2014-Oct-31 00:17 100 6 gusting 12 28.3
2014-Oct-30 23:47 083 6 gusting 10 28.3
2014-Oct-30 23:32 077 3 gusting 11 28.3
2014-Oct-30 23:17 103 6 gusting 11 28.3
2014-Oct-30 23:02 077 6 gusting 12 28.3
2014-Oct-30 22:47 071 4 gusting 12 28.3
2014-Oct-30 22:32 074 5 gusting 10 28.3
2014-Oct-30 22:17 105 5 gusting 13 28.3
2014-Oct-30 22:02 060 6 gusting 10 28.3
2014-Oct-30 21:47 074 7 gusting 13 28.9
2014-Oct-30 21:32 065 6 gusting 10 28.9
2014-Oct-30 21:17 088 5 gusting 10 29.4
2014-Oct-30 21:02 066 7 gusting 13 29.4
2014-Oct-30 20:47 048 5 gusting 10 29.4
2014-Oct-30 20:32 094 6 gusting 11 29.4
2014-Oct-30 20:17 080 6 gusting 13 29.4
2014-Oct-30 20:02 073 5 gusting 11 30.0
2014-Oct-30 19:47 085 7 gusting 14 30.0
2014-Oct-30 19:32 105 7 30.6
2014-Oct-30 19:17 079 6 gusting 13 30.0
2014-Oct-30 19:02 100 8 gusting 15 30.0
2014-Oct-30 18:47 061 6 gusting 11 30.6
2014-Oct-30 18:32 066 6 gusting 11 31.1
2014-Oct-30 18:17 099 5 gusting 13 30.6
2014-Oct-30 18:02 087 7 30.6
2014-Oct-30 17:46 108 6 gusting 13 30.6
2014-Oct-30 17:31 101 6 gusting 13 30.6
2014-Oct-30 17:16 099 6 gusting 13 30.6
2014-Oct-30 17:01 098 7 gusting 18 30.0
2014-Oct-30 16:46 113 8 gusting 13 30.6
2014-Oct-30 16:31 089 7 gusting 13 30.6
2014-Oct-30 16:16 077 8 gusting 13 30.6
2014-Oct-30 16:01 111 7 gusting 13 30.6
2014-Oct-30 15:46 098 7 gusting 13 30.6
2014-Oct-30 15:31 108 9 gusting 13 30.6
2014-Oct-30 15:16 057 7 gusting 13 30.0
2014-Oct-30 15:01 110 7 gusting 15 30.6
2014-Oct-30 14:46 129 8 gusting 14 30.6
2014-Oct-30 14:31 096 9 gusting 15 30.0
2014-Oct-30 14:16 096 6 gusting 13 29.4
2014-Oct-30 14:01 088 7 gusting 13 30.0
2014-Oct-30 13:46 034 6 gusting 14 30.0
2014-Oct-30 13:31 096 9 gusting 13 29.4
2014-Oct-30 13:16 112 8 gusting 13 29.4
2014-Oct-30 13:01 110 9 gusting 13 29.4
2014-Oct-30 12:46 091 6 gusting 12 28.9
2014-Oct-30 12:31 137 6 gusting 11 28.3
2014-Oct-30 12:16 095 6 gusting 9 28.9
2014-Oct-30 12:01 105 7 gusting 13 28.3
2014-Oct-30 11:46 094 4 gusting 9 28.3
2014-Oct-30 11:31 115 3 gusting 7 27.8
2014-Oct-30 11:16 110 3 gusting 9 27.2
2014-Oct-30 11:01 079 1 gusting 5 27.2
2014-Oct-30 10:46 108 2 gusting 6 27.2
2014-Oct-30 10:31 108 2 gusting 8 26.7
2014-Oct-30 10:16 095 3 gusting 6 27.2
2014-Oct-30 10:01 098 3 gusting 7 27.2
2014-Oct-30 09:46 105 3 gusting 8 26.7
2014-Oct-30 09:31 094 2 gusting 6 26.7
2014-Oct-30 09:16 092 2 gusting 5 26.7
2014-Oct-30 09:02 093 2 gusting 5 26.7
2014-Oct-30 08:46 108 2 gusting 6 26.7
2014-Oct-30 08:31 105 4 gusting 7 26.7
2014-Oct-30 08:16 096 3 gusting 6 26.7
2014-Oct-30 08:01 095 4 gusting 6 27.2
2014-Oct-30 07:46 100 3 gusting 6 27.2
2014-Oct-30 07:32 108 3 gusting 6 27.2
2014-Oct-30 07:16 101 3 gusting 6 27.2
2014-Oct-30 07:01 101 3 gusting 5 27.2
2014-Oct-30 06:45 086 2 gusting 6 27.2
2014-Oct-30 06:30 113 4 gusting 7 27.2
2014-Oct-30 06:15 074 3 gusting 8 27.2
2014-Oct-30 06:00 094 2 gusting 7 27.2
2014-Oct-30 05:45 104 4 gusting 6 27.2
2014-Oct-30 05:30 111 3 gusting 7 27.2
2014-Oct-30 05:15 108 1 gusting 5 27.2
2014-Oct-30 05:00 108 2 gusting 6 27.2
2014-Oct-30 04:45 103 2 gusting 8 27.2
2014-Oct-30 04:30 075 3 gusting 6 27.2
2014-Oct-30 04:15 094 3 gusting 6 27.8
2014-Oct-30 04:00 101 3 gusting 6 27.8
2014-Oct-30 03:45 092 2 gusting 6 27.8
2014-Oct-30 03:30 091 4 gusting 7 27.8
2014-Oct-30 03:15 081 3 gusting 6 27.8
2014-Oct-30 03:00 089 4 gusting 8 27.8
2014-Oct-30 02:45 058 2 gusting 5 27.8
2014-Oct-30 02:30 063 3 gusting 7 27.8
2014-Oct-30 02:15 100 4 gusting 7 27.8
2014-Oct-30 02:00 089 3 gusting 6 27.8
2014-Oct-30 01:45 091 3 gusting 6 27.8
2014-Oct-30 01:30 068 3 gusting 6 27.8
2014-Oct-30 01:15 047 2 gusting 7 27.8
2014-Oct-30 01:00 069 5 gusting 8 27.8
2014-Oct-30 00:45 065 4 gusting 7 27.8
2014-Oct-30 00:30 073 4 gusting 10 27.8
2014-Oct-30 00:15 071 2 gusting 6 27.8
2014-Oct-30 00:00 072 4 gusting 9 27.8
2014-Oct-29 23:46 071 4 gusting 9 27.8
2014-Oct-29 23:30 086 3 gusting 7 27.8
2014-Oct-29 23:15 066 5 gusting 8 27.8
2014-Oct-29 23:00 094 3 gusting 10 28.3
2014-Oct-29 22:45 065 5 gusting 10 27.8
2014-Oct-29 22:30 064 4 gusting 12 28.3
2014-Oct-29 22:15 072 4 gusting 10 28.3
2014-Oct-29 22:00 071 5 gusting 10 28.3
2014-Oct-29 21:45 056 4 gusting 11 28.9
2014-Oct-29 21:30 057 6 gusting 12 28.9
2014-Oct-29 21:15 073 6 gusting 9 28.9
2014-Oct-29 21:00 077 6 gusting 12 28.9
2014-Oct-29 20:45 058 4 gusting 9 29.4
2014-Oct-29 20:31 079 6 gusting 11 29.4
2014-Oct-29 20:15 079 4 gusting 11 30.0
2014-Oct-29 20:00 120 6 gusting 10 30.0
2014-Oct-29 19:45 105 5 gusting 13 30.6
2014-Oct-29 19:30 086 6 gusting 10 30.0
2014-Oct-29 19:15 076 6 gusting 11 30.6
2014-Oct-29 19:00 098 7 gusting 13 30.6
2014-Oct-29 18:45 086 5 gusting 9 30.6
2014-Oct-29 18:29 107 8 gusting 12 30.6
2014-Oct-29 18:14 117 4 gusting 9 31.1
2014-Oct-29 17:59 068 4 gusting 11 31.1
2014-Oct-29 17:44 077 5 gusting 9 30.6
2014-Oct-29 17:29 082 5 gusting 10 30.6
2014-Oct-29 17:14 061 5 gusting 8 30.6
2014-Oct-29 16:59 091 5 gusting 9 30.6
2014-Oct-29 16:44 061 5 gusting 9 30.6
2014-Oct-29 16:29 072 5 gusting 12 30.6
2014-Oct-29 16:14 097 5 gusting 8 30.6
2014-Oct-29 15:59 117 5 gusting 8 30.6
2014-Oct-29 15:44 129 6 gusting 10 30.0
2014-Oct-29 15:29 124 7 gusting 11 30.6
2014-Oct-29 15:14 090 6 gusting 10 30.0
2014-Oct-29 14:59 110 6 gusting 12 30.6
2014-Oct-29 14:45 084 6 gusting 13 29.4
2014-Oct-29 14:29 089 5 gusting 8 30.0
2014-Oct-29 14:14 068 5 gusting 13 29.4
2014-Oct-29 13:59 095 8 gusting 14 29.4
2014-Oct-29 13:44 117 8 gusting 13 29.4
2014-Oct-29 13:29 066 4 gusting 13 29.4
2014-Oct-29 13:14 088 5 gusting 9 28.9
2014-Oct-29 12:59 072 6 gusting 11 28.3
2014-Oct-29 12:44 088 6 gusting 10 28.9
2014-Oct-29 12:29 117 6 gusting 11 28.9
2014-Oct-29 12:14 083 6 gusting 12 28.9
2014-Oct-29 11:59 129 4 gusting 6 28.3
2014-Oct-29 11:44 068 2 gusting 5 27.8
2014-Oct-29 11:30 084 3 gusting 6 27.8
2014-Oct-29 11:14 075 0 gusting 3 26.7
2014-Oct-29 10:59 075 26.7
2014-Oct-29 10:44 084 26.7
2014-Oct-29 10:29 075 0 gusting 4 26.7
2014-Oct-29 10:14 089 1 gusting 4 26.7
2014-Oct-29 09:59 106 0 gusting 3 26.7
2014-Oct-29 09:44 083 1 gusting 4 26.7
2014-Oct-29 09:30 099 0 gusting 3 26.7
2014-Oct-29 09:14 078 0 gusting 2 26.7
2014-Oct-29 08:59 091 26.7
2014-Oct-29 08:44 071 1 gusting 4 26.7
2014-Oct-29 08:29 065 1 gusting 4 26.7
2014-Oct-29 08:14 078 1 gusting 3 26.7
2014-Oct-29 07:59 097 0 gusting 3 26.7
2014-Oct-29 07:44 071 1 gusting 5 26.7
2014-Oct-29 07:28 110 0 gusting 7 26.7
2014-Oct-29 07:13 079 1 gusting 6 26.7
2014-Oct-29 06:58 101 2 gusting 6 26.7
2014-Oct-29 06:43 085 2 gusting 6 26.7
2014-Oct-29 06:28 090 0 gusting 4 26.7
2014-Oct-29 06:13 080 0 gusting 3 27.2